Location: Kitt Peak
(31.9639°N, 111.5992°W)
Time: 04:40:56
(UTC-07:00)

DUCHIFAT 1 - Visible Passes

Search period start: 17 September 2024 00:00
Search period end: 27 September 2024 00:00
Orbit: 522 x 542 km, 98.1° (Epoch: 16 September)

Date Brightness Start Highest point End Pass type
(mag) Time Alt. Az. Time Alt. Az. Time Alt. Az.
17 Sep ? 04:46:57 10° NE 04:49:33 17° E 04:52:07 10° SE visible
18 Sep ? 04:37:51 10° ENE 04:39:37 13° E 04:41:22 10° ESE visible
21 Sep ? 05:40:16 10° N 05:44:04 83° WNW 05:47:50 10° SSW visible
22 Sep ? 05:30:11 10° NNE 05:33:58 69° ESE 05:37:44 10° S visible
23 Sep ? 05:20:08 10° NNE 05:23:49 48° E 05:27:28 10° S visible
24 Sep ? 05:10:06 10° NNE 05:13:35 34° E 05:17:02 10° SSE visible
25 Sep ? 05:00:09 10° NE 05:03:17 24° E 05:06:26 10° SSE visible
26 Sep ? 04:50:17 10° NE 04:52:55 18° E 04:55:34 10° SE visible
